�������l�o���
Date,Time,MP-1(��Sv/h),MP-2(��Sv/h),MP-3(��Sv/h),MP-4(��Sv/h),MP-5(��Sv/h),MP-6(��Sv/h),MP-7(��Sv/h),MP-8(��Sv/h),����,����(m/s),���J
2016/10/22,00:00,1.163,1.971,1.354,2.181,1.538,0.606,1.078,0.991,���k��,6.0,��
2016/10/22,00:10,1.163,1.967,1.357,2.183,1.539,0.604,1.079,0.993,�k��,4.6,��
2016/10/22,00:20,1.164,1.968,1.354,2.185,1.539,0.605,1.080,0.994,�k�k��,3.5,��
2016/10/22,00:30,1.165,1.969,1.356,2.181,1.536,0.606,1.078,0.992,�k��,4.7,��
2016/10/22,00:40,1.163,1.970,1.353,2.184,1.539,0.605,1.079,0.995,���k��,4.5,��
2016/10/22,00:50,1.165,1.971,1.353,2.182,1.539,0.605,1.079,0.993,��,3.4,��
2016/10/22,01:00,1.162,1.971,1.351,2.183,1.539,0.606,1.078,0.993,�쐼,3.1,��
2016/10/22,01:10,1.163,1.972,1.354,2.185,1.536,0.605,1.077,0.992,�쐼,1.9,��
2016/10/22,01:20,1.163,1.970,1.354,2.181,1.536,0.605,1.079,0.993,���쐼,1.8,��
2016/10/22,01:30,1.164,1.970,1.353,2.181,1.538,0.605,1.079,0.993,�쐼,2.1,��
2016/10/22,01:40,1.162,1.969,1.353,2.183,1.536,0.606,1.077,0.994,��,2.0,��
2016/10/22,01:50,1.164,1.971,1.355,2.181,1.538,0.606,1.078,0.993,���k��,2.1,��
2016/10/22,02:00,1.163,1.968,1.354,2.183,1.536,0.605,1.078,0.991,�k��,3.0,��
2016/10/22,02:10,1.164,1.972,1.356,2.181,1.535,0.605,1.077,0.993,�k��,2.0,��
2016/10/22,02:20,1.165,1.968,1.355,2.179,1.536,0.607,1.077,0.992,�k�k��,2.7,��
2016/10/22,02:30,1.162,1.969,1.355,2.183,1.537,0.606,1.077,0.992,�k�k��,1.6,��
2016/10/22,02:40,1.165,1.971,1.352,2.185,1.536,0.606,1.078,0.993,�k��,1.4,��
2016/10/22,02:50,1.163,1.970,1.354,2.186,1.538,0.606,1.077,0.992,�k�k��,1.5,��
2016/10/22,03:00,1.165,1.969,1.353,2.181,1.537,0.605,1.079,0.991,�k��,2.0,��
2016/10/22,03:10,1.161,1.970,1.353,2.182,1.532,0.605,1.076,0.993,�k��,2.2,��
2016/10/22,03:20,1.164,1.968,1.350,2.182,1.535,0.604,1.078,0.993,�k��,1.8,��
2016/10/22,03:30,1.164,1.966,1.355,2.180,1.534,0.607,1.077,0.993,���k��,4.1,��
2016/10/22,03:40,1.162,1.966,1.352,2.180,1.534,0.605,1.078,0.994,�k��,5.3,��
2016/10/22,03:50,1.162,1.964,1.353,2.181,1.533,0.606,1.077,0.993,�k��,3.0,��
2016/10/22,04:00,1.163,1.965,1.352,2.181,1.536,0.606,1.077,0.994,���k��,1.5,��
2016/10/22,04:10,1.163,1.967,1.352,2.182,1.535,0.605,1.077,0.991,���k��,1.6,��
2016/10/22,04:20,1.164,1.968,1.351,2.180,1.536,0.606,1.078,0.991,���쐼,1.5,��
2016/10/22,04:30,1.162,1.966,1.353,2.179,1.534,0.604,1.077,0.991,�쐼,1.3,��
2016/10/22,04:40,1.163,1.965,1.352,2.183,1.534,0.605,1.079,0.994,��,0.8,��
2016/10/22,04:50,1.159,1.967,1.351,2.181,1.534,0.606,1.078,0.993,���k��,1.4,��
2016/10/22,05:00,1.163,1.965,1.351,2.183,1.534,0.604,1.078,0.994,���쐼,0.6,��
2016/10/22,05:10,1.162,1.967,1.351,2.181,1.534,0.605,1.078,0.994,���쐼,1.5,��
2016/10/22,05:20,1.163,1.965,1.351,2.178,1.537,0.603,1.078,0.993,���k��,2.1,��
2016/10/22,05:30,1.160,1.965,1.349,2.179,1.535,0.604,1.076,0.993,���k��,2.6,��
2016/10/22,05:40,1.164,1.966,1.353,2.183,1.534,0.604,1.077,0.992,���k��,2.2,��
2016/10/22,05:50,1.162,1.967,1.352,2.179,1.537,0.605,1.077,0.992,��,1.6,��
2016/10/22,06:00,1.163,1.963,1.352,2.178,1.533,0.604,1.076,0.993,���k��,1.6,��
2016/10/22,06:10,1.161,1.964,1.353,2.181,1.535,0.605,1.078,0.992,�k��,2.3,��
2016/10/22,06:20,1.164,1.968,1.350,2.180,1.535,0.604,1.078,0.992,�k��,2.0,��
2016/10/22,06:30,1.163,1.966,1.352,2.182,1.532,0.604,1.077,0.992,�k��,1.8,��
2016/10/22,06:40,1.163,1.968,1.350,2.179,1.533,0.605,1.078,0.994,���k��,1.9,��
2016/10/22,06:50,1.159,1.966,1.353,2.182,1.536,0.605,1.079,0.993,���k��,2.0,��
2016/10/22,07:00,1.164,1.965,1.352,2.181,1.539,0.606,1.078,0.993,�k��,1.9,��
2016/10/22,07:10,1.163,1.967,1.351,2.182,1.536,0.605,1.079,0.993,��,1.2,��
2016/10/22,07:20,1.165,1.965,1.343,2.183,1.539,0.605,1.080,0.994,�k��,1.2,��
2016/10/22,07:30,1.163,1.968,1.347,2.184,1.537,0.604,1.077,0.993,���k��,2.0,��
2016/10/22,07:40,1.164,1.962,1.355,2.185,1.539,0.605,1.080,0.992,���k��,1.5,��
2016/10/22,07:50,1.164,1.967,1.356,2.184,1.535,0.605,1.078,0.994,�k��,2.0,��
2016/10/22,08:00,1.162,1.967,1.348,2.185,1.538,0.606,1.082,0.993,�k��,1.6,��
2016/10/22,08:10,1.166,1.969,1.342,2.183,1.538,0.607,1.082,0.995,�k��,0.8,��
2016/10/22,08:20,1.165,1.968,1.346,2.184,1.541,0.609,1.081,0.995,��,0.5,��
2016/10/22,08:30,1.168,1.973,1.347,2.185,1.539,0.609,1.079,0.995,-,CALM,��
2016/10/22,08:40,1.165,1.970,1.350,2.188,1.537,0.610,1.079,0.995,-,CALM,��
2016/10/22,08:50,1.167,1.972,1.351,2.186,1.542,0.611,1.078,0.993,�쐼,1.1,��
2016/10/22,09:00,1.168,1.974,1.351,2.190,1.544,0.609,1.078,0.994,�쐼,1.3,��
2016/10/22,09:10,1.167,1.974,1.353,2.189,1.543,0.608,1.078,0.996,��쐼,1.3,��
2016/10/22,09:20,1.171,1.971,1.352,2.186,1.543,0.613,1.078,0.995,��쓌,1.9,��
2016/10/22,09:30,1.168,1.975,1.347,2.188,1.540,0.612,1.079,0.995,���쓌,1.3,��
2016/10/22,09:40,1.167,1.967,1.345,2.186,1.542,0.612,1.079,0.997,���쓌,1.6,��
2016/10/22,09:50,1.170,1.969,1.357,2.188,1.543,0.611,1.079,0.994,���쓌,2.4,��
2016/10/22,10:00,1.171,1.965,1.355,2.189,1.543,0.610,1.081,0.995,���쓌,2.5,��
2016/10/22,10:10,1.169,1.970,1.354,2.187,1.539,0.609,1.079,0.995,���쓌,2.1,��
2016/10/22,10:20,1.167,1.972,1.355,2.188,1.541,0.608,1.081,0.994,�쓌,2.7,��
2016/10/22,10:30,1.168,1.972,1.352,2.189,1.542,0.609,1.082,0.992,���쓌,3.4,��
2016/10/22,10:40,1.166,1.969,1.355,2.193,1.542,0.608,1.081,0.995,���쓌,2.6,��
2016/10/22,10:50,1.167,1.968,1.356,2.188,1.540,0.608,1.081,0.992,�쓌,2.1,��
2016/10/22,11:00,1.165,1.972,1.355,2.190,1.542,0.609,1.082,0.994,���쓌,2.3,��
2016/10/22,11:10,1.164,1.974,1.356,2.190,1.537,0.611,1.080,0.991,�쓌,3.6,��
2016/10/22,11:20,1.167,1.971,1.356,2.192,1.542,0.611,1.082,0.994,�쓌,2.8,��
2016/10/22,11:30,1.169,1.973,1.360,2.194,1.544,0.610,1.082,0.992,�쓌,3.4,��
2016/10/22,11:40,1.169,1.972,1.360,2.189,1.542,0.613,1.082,0.992,�쓌,5.2,��
2016/10/22,11:50,1.169,1.971,1.360,2.192,1.543,0.611,1.082,0.993,��쓌,4.1,��
2016/10/22,12:00,1.170,1.971,1.360,2.190,1.543,0.609,1.083,0.995,��쓌,4.4,��
2016/10/22,12:10,1.169,1.976,1.359,2.192,1.539,0.611,1.081,0.994,��쓌,4.2,��
2016/10/22,12:20,1.170,1.973,1.359,2.193,1.542,0.611,1.083,0.994,��쓌,5.6,��
2016/10/22,12:30,1.167,1.972,1.361,2.193,1.544,0.610,1.082,0.993,��쓌,5.3,��
2016/10/22,12:40,1.170,1.974,1.360,2.192,1.545,0.609,1.082,0.995,��쓌,5.5,��
2016/10/22,12:50,1.170,1.970,1.361,2.191,1.544,0.611,1.082,0.994,��쓌,4.9,��
2016/10/22,13:00,1.170,1.971,1.358,2.192,1.540,0.612,1.082,0.993,�쓌,4.9,��
2016/10/22,13:10,1.170,1.975,1.351,2.194,1.545,0.612,1.082,0.993,��쓌,6.0,��
2016/10/22,13:20,1.169,1.974,1.352,2.196,1.544,0.611,1.082,0.992,��쓌,6.9,��
2016/10/22,13:30,1.169,1.974,1.357,2.194,1.544,0.611,1.080,0.992,��쓌,6.4,��
2016/10/22,13:40,1.169,1.977,1.359,2.193,1.543,0.611,1.081,0.993,��쓌,6.0,��
2016/10/22,13:50,1.171,1.972,1.362,2.191,1.545,0.612,1.081,0.994,��쓌,7.7,��
2016/10/22,14:00,1.171,1.974,1.359,2.193,1.544,0.613,1.082,0.992,��쓌,5.5,��
2016/10/22,14:10,1.172,1.976,1.362,2.192,1.544,0.613,1.081,0.994,��쓌,6.9,��
2016/10/22,14:20,1.170,1.973,1.363,2.192,1.545,0.611,1.081,0.993,��쓌,7.4,��
2016/10/22,14:30,1.173,1.977,1.365,2.194,1.545,0.613,1.083,0.994,��쓌,7.4,��
2016/10/22,14:40,1.170,1.971,1.363,2.192,1.547,0.614,1.082,0.993,��쓌,7.5,��
2016/10/22,14:50,1.170,1.969,1.366,2.192,1.545,0.614,1.083,0.993,��쓌,7.5,��
2016/10/22,15:00,1.174,1.974,1.366,2.193,1.544,0.614,1.082,0.996,��쓌,7.4,��
2016/10/22,15:10,1.173,1.975,1.364,2.195,1.545,0.613,1.081,0.996,��쓌,6.9,��
2016/10/22,15:20,1.172,1.978,1.367,2.196,1.545,0.616,1.082,0.995,��쓌,7.2,��
2016/10/22,15:30,1.170,1.974,1.364,2.192,1.548,0.614,1.083,0.998,��쓌,7.7,��
2016/10/22,15:40,1.170,1.975,1.365,2.194,1.545,0.615,1.081,0.994,��쓌,7.2,��
2016/10/22,15:50,1.172,1.976,1.363,2.196,1.544,0.614,1.083,0.993,��쓌,8.3,��
2016/10/22,16:00,1.171,1.976,1.361,2.195,1.544,0.615,1.081,0.994,��쓌,6.1,��
2016/10/22,16:10,1.171,1.977,1.366,2.196,1.545,0.614,1.084,0.995,��쓌,6.9,��
2016/10/22,16:20,1.172,1.975,1.363,2.195,1.543,0.613,1.084,0.994,��쓌,6.7,��
2016/10/22,16:30,1.172,1.979,1.364,2.194,1.544,0.616,1.080,0.995,��쓌,7.2,��
2016/10/22,16:40,1.172,1.977,1.366,2.196,1.545,0.614,1.079,0.994,��쓌,7.4,��
2016/10/22,16:50,1.172,1.979,1.365,2.195,1.543,0.615,1.081,0.996,��,6.0,��
2016/10/22,17:00,1.175,1.977,1.366,2.193,1.543,0.615,1.081,0.996,��,5.8,��
2016/10/22,17:10,1.173,1.981,1.367,2.193,1.545,0.615,1.079,0.997,��쓌,6.4,��
2016/10/22,17:20,1.171,1.980,1.364,2.193,1.544,0.616,1.082,0.997,��,6.7,��
2016/10/22,17:30,1.174,1.979,1.366,2.196,1.545,0.617,1.081,0.998,��,6.1,��
2016/10/22,17:40,1.173,1.975,1.365,2.192,1.548,0.614,1.080,0.996,��,5.3,��
2016/10/22,17:50,1.175,1.979,1.367,2.191,1.546,0.616,1.084,0.997,��,7.2,��
2016/10/22,18:00,1.177,1.978,1.367,2.192,1.550,0.616,1.084,1.000,��,7.1,��
2016/10/22,18:10,1.177,1.974,1.367,2.190,1.548,0.618,1.083,0.997,��,6.6,��
2016/10/22,18:20,1.173,1.977,1.364,2.193,1.548,0.617,1.087,0.998,��,6.3,��
2016/10/22,18:30,1.175,1.978,1.367,2.194,1.548,0.615,1.084,0.997,��,5.6,��
2016/10/22,18:40,1.175,1.978,1.365,2.195,1.548,0.617,1.082,0.996,��,5.6,��
2016/10/22,18:50,1.177,1.975,1.367,2.192,1.545,0.613,1.084,0.995,��,5.2,��
2016/10/22,19:00,1.174,1.977,1.364,2.191,1.547,0.616,1.084,0.998,��,5.6,��
2016/10/22,19:10,1.175,1.981,1.364,2.191,1.550,0.616,1.085,0.996,��,4.1,��
2016/10/22,19:20,1.174,1.973,1.367,2.190,1.549,0.615,1.085,0.997,��,2.4,��
2016/10/22,19:30,1.175,1.976,1.364,2.191,1.547,0.616,1.085,0.995,��,1.2,��
2016/10/22,19:40,1.176,1.973,1.368,2.192,1.545,0.616,1.082,0.997,��쐼,1.9,��
2016/10/22,19:50,1.174,1.977,1.363,2.192,1.547,0.616,1.084,0.996,�쐼,1.6,��
2016/10/22,20:00,1.176,1.978,1.365,2.187,1.548,0.616,1.083,0.995,��,0.9,��
2016/10/22,20:10,1.172,1.980,1.363,2.192,1.549,0.615,1.082,0.996,���쐼,0.9,��
2016/10/22,20:20,1.173,1.978,1.364,2.193,1.547,0.615,1.084,0.997,���k��,1.3,��
2016/10/22,20:30,1.171,1.977,1.364,2.194,1.546,0.615,1.082,0.996,��,1.6,��
2016/10/22,20:40,1.174,1.975,1.361,2.195,1.549,0.616,1.083,0.998,���k��,1.1,��
2016/10/22,20:50,1.173,1.972,1.360,2.193,1.549,0.614,1.084,0.999,�k��,2.0,��
2016/10/22,21:00,1.174,1.975,1.362,2.192,1.545,0.614,1.084,0.994,���k��,1.1,��
2016/10/22,21:10,1.176,1.975,1.362,2.191,1.547,0.616,1.083,0.995,���k��,1.1,��
2016/10/22,21:20,1.173,1.974,1.364,2.195,1.546,0.616,1.083,0.998,��,0.6,��
2016/10/22,21:30,1.175,1.973,1.364,2.195,1.548,0.615,1.083,0.996,��,1.2,��
2016/10/22,21:40,1.176,1.975,1.363,2.194,1.546,0.615,1.084,0.997,��쐼,1.1,��
2016/10/22,21:50,1.173,1.976,1.363,2.192,1.546,0.614,1.082,0.996,��쐼,1.3,��
2016/10/22,22:00,1.173,1.975,1.362,2.194,1.545,0.612,1.083,0.996,�쐼,0.9,��
2016/10/22,22:10,1.174,1.976,1.363,2.188,1.547,0.615,1.082,0.998,��,0.8,��
2016/10/22,22:20,1.173,1.978,1.364,2.192,1.547,0.614,1.082,0.997,�쐼,1.0,��
2016/10/22,22:30,1.173,1.975,1.360,2.194,1.546,0.614,1.082,0.996,�k�k��,3.2,��
2016/10/22,22:40,1.172,1.976,1.364,2.190,1.544,0.614,1.083,0.993,�k�k��,3.1,��
2016/10/22,22:50,1.173,1.973,1.363,2.194,1.545,0.616,1.083,0.998,�k�k��,3.3,��
2016/10/22,23:00,1.174,1.975,1.365,2.193,1.545,0.616,1.083,0.995,�k�k��,2.9,��
2016/10/22,23:10,1.173,1.975,1.363,2.194,1.543,0.614,1.082,0.997,�k�k��,3.2,��
2016/10/22,23:20,1.173,1.972,1.361,2.192,1.547,0.614,1.082,0.996,�k�k��,3.8,��
2016/10/22,23:30,1.171,1.973,1.361,2.195,1.545,0.614,1.082,0.997,�k,4.5,��
2016/10/22,23:40,1.173,1.972,1.361,2.192,1.545,0.614,1.083,0.996,�k,4.9,��
2016/10/22,23:50,1.171,1.973,1.361,2.193,1.545,0.612,1.082,0.996,�k,6.3,��
